• In Hungary
  • List of Countries
  • For 7 days
  • Water Temperature
  • Satellite Maps
  • Weather Map
  • News
  • Weather Widgets
  • user-avatar
    Login

    Hourly Weather Gudkovo

    Today, 28 May, Monday

    Time Temperature Precipitation Wind Pressure Humidity
    00:00 +11°C° 0 mm 3 mps 745 mmHg 64%
    01:00 +10°C° 0 mm 3 mps 746 mmHg 61%
    02:00 +9°C° 0 mm 3 mps 746 mmHg 59%
    03:00 +9°C° 0 mm 3 mps 747 mmHg 59%
    04:00 +8°C° 0 mm 3 mps 747 mmHg 58%
    05:00 +8°C° 0 mm 3 mps 748 mmHg 58%
    06:00 +10°C° 0 mm 3 mps 748 mmHg 53%
    07:00 +12°C° 0 mm 3 mps 749 mmHg 48%
    08:00 +13°C° 0 mm 3 mps 749 mmHg 42%
    09:00 +14°C° 0 mm 3 mps 749 mmHg 39%
    10:00 +16°C° 0 mm 3 mps 750 mmHg 36%
    11:00 +18°C° 0 mm 3 mps 750 mmHg 33%
    12:00 +18°C° 0 mm 3 mps 750 mmHg 32%
    13:00 +19°C° 0 mm 2 mps 750 mmHg 32%
    14:00 +19°C° 0 mm 2 mps 750 mmHg 31%
    15:00 +19°C° 0 mm 2 mps 749 mmHg 33%
    16:00 +19°C° 0 mm 2 mps 749 mmHg 36%
    17:00 +19°C° 0 mm 2 mps 749 mmHg 38%
    18:00 +16°C° 0 mm 2 mps 749 mmHg 46%
    19:00 +14°C° 0 mm 1 mps 749 mmHg 53%
    20:00 +12°C° 0 mm 1 mps 749 mmHg 61%
    21:00 +11°C° 0 mm 1 mps 749 mmHg 62%
    22:00 +10°C° 0 mm 1 mps 749 mmHg 64%
    23:00 +10°C° 0 mm 1 mps 750 mmHg 66%

    Tomorrow, 29 May, Tuesday

    Time Temperature Precipitation Wind Pressure Humidity
    00:00 +9°C° 0 mm 1 mps 750 mmHg 67%
    01:00 +9°C° 0 mm 1 mps 750 mmHg 68%
    02:00 +8°C° 0 mm 1 mps 750 mmHg 69%
    03:00 +9°C° 0 mm 1 mps 750 mmHg 69%
    04:00 +8°C° 0 mm 2 mps 750 mmHg 68%
    05:00 +9°C° 0 mm 2 mps 750 mmHg 68%
    06:00 +12°C° 0 mm 2 mps 749 mmHg 62%
    07:00 +14°C° 0 mm 2 mps 749 mmHg 55%
    08:00 +16°C° 0 mm 2 mps 749 mmHg 49%
    09:00 +18°C° 0 mm 2 mps 749 mmHg 45%
    10:00 +19°C° 0 mm 2 mps 748 mmHg 41%
    11:00 +21°C° 0 mm 2 mps 748 mmHg 38%
    12:00 +22°C° 0 mm 3 mps 747 mmHg 37%
    13:00 +22°C° 0 mm 3 mps 746 mmHg 36%
    14:00 +24°C° 0 mm 3 mps 745 mmHg 36%
    15:00 +24°C° 0 mm 3 mps 745 mmHg 39%
    16:00 +24°C° 0 mm 3 mps 744 mmHg 42%
    17:00 +24°C° 0 mm 3 mps 743 mmHg 45%
    18:00 +21°C° 0 mm 3 mps 743 mmHg 54%
    19:00 +19°C° 0 mm 3 mps 742 mmHg 64%
    20:00 +17°C° 0 mm 2 mps 741 mmHg 73%
    21:00 +17°C° 0 mm 3 mps 741 mmHg 75%
    22:00 +16°C° 0 mm 3 mps 741 mmHg 78%
    23:00 +16°C° 0 mm 3 mps 740 mmHg 81%

    Day after tomorrow, 30 May, Wednesday

    Time Temperature Precipitation Wind Pressure Humidity
    00:00 +14°C° 0 mm 3 mps 740 mmHg 84%
    01:00 +14°C° 0 mm 3 mps 740 mmHg 88%
    02:00 +13°C° 0 mm 3 mps 740 mmHg 91%
    03:00 +14°C° 0 mm 3 mps 739 mmHg 88%
    04:00 +14°C° 0 mm 3 mps 739 mmHg 86%
    05:00 +16°C° 0 mm 3 mps 738 mmHg 83%
    06:00 +18°C° 0 mm 4 mps 738 mmHg 73%
    07:00 +20°C° 0 mm 5 mps 737 mmHg 63%
    08:00 +22°C° 0 mm 5 mps 737 mmHg 53%
    09:00 +23°C° 0 mm 6 mps 737 mmHg 48%
    10:00 +24°C° 0 mm 6 mps 736 mmHg 44%
    11:00 +26°C° 0 mm 6 mps 736 mmHg 39%
    12:00 +26°C° 0 mm 6 mps 735 mmHg 39%
    13:00 +26°C° 0 mm 6 mps 735 mmHg 38%
    14:00 +27°C° 0 mm 6 mps 734 mmHg 38%
    15:00 +26°C° 0 mm 5 mps 734 mmHg 42%
    16:00 +25°C° 0 mm 4 mps 734 mmHg 46%
    17:00 +23°C° 0 mm 4 mps 733 mmHg 50%
    18:00 +21°C° 0 mm 3 mps 733 mmHg 55%
    19:00 +20°C° 0 mm 3 mps 733 mmHg 59%
    20:00 +18°C° 0 mm 3 mps 734 mmHg 63%
    21:00 +16°C° 0 mm 3 mps 734 mmHg 60%
    22:00 +13°C° 0 mm 3 mps 734 mmHg 58%
    23:00 +12°C° 0 mm 3 mps 734 mmHg 55%

    31 May, Thursday

    Time Temperature Precipitation Wind Pressure Humidity
    00:00 +11°C° 0 mm 3 mps 735 mmHg 59%
    01:00 +9°C° 0 mm 3 mps 735 mmHg 63%
    02:00 +8°C° 0 mm 2 mps 735 mmHg 67%
    03:00 +8°C° 0 mm 3 mps 736 mmHg 69%
    04:00 +9°C° 0 mm 3 mps 736 mmHg 71%
    05:00 +8°C° 0 mm 4 mps 736 mmHg 72%
    06:00 +10°C° 0 mm 4 mps 737 mmHg 67%
    07:00 +11°C° 0 mm 4 mps 737 mmHg 61%
    08:00 +12°C° 0 mm 4 mps 738 mmHg 55%
    09:00 +13°C° 0 mm 4 mps 738 mmHg 51%
    10:00 +14°C° 0 mm 4 mps 738 mmHg 46%
    11:00 +14°C° 0 mm 4 mps 738 mmHg 41%
    12:00 +14°C° 0 mm 4 mps 739 mmHg 39%
    13:00 +15°C° 0 mm 4 mps 739 mmHg 36%
    14:00 +15°C° 0 mm 4 mps 739 mmHg 34%
    15:00 +14°C° 0 mm 4 mps 739 mmHg 34%
    16:00 +14°C° 0 mm 4 mps 739 mmHg 35%
    17:00 +14°C° 0 mm 4 mps 739 mmHg 36%
    18:00 +12°C° 0 mm 3 mps 740 mmHg 43%
    19:00 +10°C° 0 mm 3 mps 740 mmHg 49%
    20:00 +8°C° 0 mm 2 mps 740 mmHg 56%
    21:00 +7°C° 0 mm 2 mps 741 mmHg 59%
    22:00 +6°C° 0 mm 2 mps 741 mmHg 61%
    23:00 +5°C° 0 mm 2 mps 742 mmHg 64%

    1 June, Friday

    Time Temperature Precipitation Wind Pressure Humidity
    00:00 +4°C° 0 mm 2 mps 742 mmHg 65%
    01:00 +3°C° 0 mm 2 mps 742 mmHg 67%
    02:00 +3°C° 0 mm 2 mps 743 mmHg 69%
    03:00 +3°C° 0 mm 2 mps 743 mmHg 67%
    04:00 +2°C° 0 mm 3 mps 743 mmHg 65%
    05:00 +3°C° 0 mm 3 mps 743 mmHg 62%
    06:00 +4°C° 0 mm 3 mps 744 mmHg 57%
    07:00 +7°C° 0 mm 3 mps 744 mmHg 51%
    08:00 +8°C° 0 mm 4 mps 744 mmHg 45%
    09:00 +8°C° 0 mm 4 mps 745 mmHg 43%
    10:00 +10°C° 0 mm 4 mps 745 mmHg 42%
    11:00 +11°C° 0 mm 4 mps 745 mmHg 40%
    12:00 +12°C° 0 mm 4 mps 745 mmHg 39%
    13:00 +12°C° 0 mm 3 mps 744 mmHg 39%
    14:00 +13°C° 0 mm 3 mps 744 mmHg 38%
    15:00 +13°C° 0 mm 3 mps 744 mmHg 39%
    16:00 +13°C° 0 mm 3 mps 744 mmHg 40%
    17:00 +13°C° 0 mm 3 mps 744 mmHg 40%
    18:00 +12°C° 0 mm 2 mps 744 mmHg 48%
    19:00 +9°C° 0 mm 2 mps 744 mmHg 56%
    20:00 +8°C° 0 mm 1 mps 745 mmHg 63%
    21:00 +7°C° 0 mm 1 mps 745 mmHg 66%
    22:00 +5°C° 0 mm 0 mps 745 mmHg 68%
    23:00 +4°C° 0 mm 0 mps 745 mmHg 71%

    2 June, Saturday

    Time Temperature Precipitation Wind Pressure Humidity
    00:00 +4°C° 0 mm 0 mps 745 mmHg 71%
    01:00 +3°C° 0 mm 0 mps 746 mmHg 72%
    02:00 +3°C° 0 mm 0 mps 746 mmHg 72%
    03:00 +5°C° 0 mm 1 mps 746 mmHg 70%
    04:00 +6°C° 0 mm 1 mps 746 mmHg 67%
    05:00 +7°C° 0 mm 1 mps 746 mmHg 65%
    06:00 +9°C° 0 mm 1 mps 746 mmHg 57%
    07:00 +12°C° 0 mm 1 mps 747 mmHg 50%
    08:00 +14°C° 0 mm 1 mps 747 mmHg 43%
    09:00 +16°C° 0 mm 1 mps 746 mmHg 40%
    10:00 +18°C° 0 mm 1 mps 746 mmHg 36%
    11:00 +19°C° 0 mm 1 mps 746 mmHg 33%
    12:00 +20°C° 0 mm 1 mps 746 mmHg 33%
    13:00 +21°C° 0 mm 1 mps 745 mmHg 33%
    14:00 +21°C° 0 mm 1 mps 745 mmHg 33%
    15:00 +21°C° 0 mm 1 mps 744 mmHg 34%
    16:00 +21°C° 0 mm 1 mps 744 mmHg 35%
    17:00 +20°C° 0 mm 1 mps 743 mmHg 36%
    18:00 +18°C° 0 mm 1 mps 743 mmHg 44%
    19:00 +15°C° 0 mm 1 mps 743 mmHg 53%
    20:00 +13°C° 0 mm 1 mps 743 mmHg 61%
    21:00 +12°C° 0 mm 1 mps 743 mmHg 63%
    22:00 +10°C° 0 mm 2 mps 743 mmHg 65%
    23:00 +9°C° 0 mm 2 mps 743 mmHg 67%
    Show more